FW2916 Weather Reports


time (UTC)temp
C
wind
direction
speed
KPH
gust
KPH
rain 1hr
cm
rain 24hr
cm
rain mn
cm
humidity
%
barometer
mb
20260505041545 21 157 0.0 11.3 0.00 0.00 0.00 76 1003.4
20260505040045 21 96 0.0 4.8 0.00 0.00 0.00 75 1003.7
20260505034549 21 0 0.0 8.0 0.00 0.00 0.00 75 1003.7
20260505033042 21 0 0.0 9.7 0.00 0.00 0.00 74 1003.7
20260505031544 21 146 1.6 8.0 0.00 0.00 0.00 74 1003.6
20260505030041 21 165 0.0 3.2 0.00 0.00 0.00 74 1003.5
20260505024540 21 175 0.0 6.4 0.00 0.00 0.00 73 1003.3
20260505023047 21 0 0.0 1.6 0.00 0.00 0.00 73 1003.0
20260505021539 21 0 0.0 0.0 0.00 0.00 0.00 74 1002.8
20260505020036 21 0 0.0 0.0 0.00 0.00 0.00 73 1002.7
20260505014536 21 0 0.0 0.0 0.00 0.00 0.00 71 1002.5
20260505013041 22 0 0.0 0.0 0.00 0.00 0.00 69 1002.3
20260505011602 23 0 0.0 0.0 0.00 0.00 0.00 65 1002.1
20260505010043 24 0 0.0 0.0 0.00 0.00 0.00 61 1001.8
20260505004536 25 0 0.0 0.0 0.00 0.00 0.00 58 1001.6
20260505003034 26 0 0.0 1.6 0.00 0.00 0.00 57 1001.4
20260505001543 26 160 0.0 1.6 0.00 0.00 0.00 56 1001.4
20260505000058 26 0 0.0 4.8 0.00 0.00 0.00 55 1001.5
20260504234540 26 0 0.0 4.8 0.00 0.00 0.00 53 1001.4
20260504233045 27 146 1.6 8.0 0.00 0.00 0.00 51 1001.5
20260504231536 28 214 1.6 9.7 0.00 0.00 0.00 49 1001.5
20260504230035 28 120 3.2 9.7 0.00 0.00 0.00 48 1001.5
20260504224538 28 122 0.0 9.7 0.00 0.00 0.00 49 1001.5
20260504223034 28 239 3.2 6.4 0.00 0.00 0.00 48 1001.5
20260504221539 27 142 1.6 9.7 0.00 0.00 0.00 50 1001.6
20260504220036 27 0 1.6 9.7 0.00 0.00 0.00 51 1001.7
20260504214534 27 295 1.6 9.7 0.00 0.00 0.00 50 1001.9
20260504213037 27 180 1.6 6.4 0.00 0.00 0.00 51 1002.0
20260504211533 27 251 3.2 9.7 0.00 0.00 0.00 50 1002.1
20260504210037 27 235 3.2 12.9 0.00 0.00 0.00 48 1002.2
20260504204535 28 38 3.2 11.3 0.00 0.00 0.00 47 1002.3
20260504203036 28 211 1.6 8.0 0.00 0.00 0.00 48 1002.5
20260504201534 28 6 1.6 11.3 0.00 0.00 0.00 49 1002.3
20260504200035 28 72 3.2 11.3 0.00 0.00 0.00 49 1002.5
20260504194540 28 148 3.2 12.9 0.00 0.00 0.00 48 1002.6
20260504193036 28 252 3.2 12.9 0.00 0.00 0.00 48 1002.6
20260504191535 28 130 3.2 12.9 0.00 0.00 0.00 50 1002.7
20260504190037 27 0 3.2 12.9 0.00 0.00 0.00 49 1002.9
20260504184534 27 117 1.6 9.7 0.00 0.00 0.00 49 1002.9
20260504183041 27 231 1.6 11.3 0.00 0.00 0.00 50 1003.0
20260504181536 27 93 1.6 11.3 0.00 0.00 0.00 52 1003.1
20260504180035 27 169 1.6 9.7 0.00 0.00 0.00 51 1003.3
20260504174535 26 285 0.0 11.3 0.00 0.00 0.00 51 1003.4
20260504173041 26 85 3.2 16.1 0.00 0.00 0.00 53 1003.6
20260504171545 26 226 3.2 11.3 0.00 0.00 0.00 51 1003.4
20260504081541 18 75 1.6 8.0 0.00 0.00 0.00 60 1005.1
20260504044540 15 0 0.0 0.0 0.00 0.00 0.00 76 1007.4
20260504043048 16 0 0.0 0.0 0.00 0.00 0.00 73 1007.1